sat.trackr.live / text

‹ back to catalog

STARLINK-3591

NORAD 51870 · 2022-022U

PAYLOAD ACTIVE UNKNOWN

§ Identity

Operator
Country
US
Launch date
2022-03-03
Launch site
AFETR
Launch vehicle
Mass (kg)
RCS (m²)

Purposes: comms

External: N2YO · Heavens-Above · Gunter

§ Orbital elements

Epoch: 2026-05-25T01:35:44.424096Z

Period
95.44 min
Inclination
53.2148°
Eccentricity
0.0001421
Mean motion
15.08840091 rev/d
Perigee alt
538.8 km
Apogee alt
540.7 km
Semi-major
6,917.9 km
B*
6.5544e-5
RAAN
26.2520°
Arg perigee
87.1441°
Mean anomaly
272.9713°
Rev number
23,469

§ Raw data

STARLINK-35911 51870U 22022U   26145.06648639  .00000755  00000+0  65544-4 0  99932 51870  53.2148  26.2520 0001421  87.1441 272.9713 15.08840091234697

JSON: /api/v1/satellites/51870 · /tle

For live sub-satellite position, see the globe view (requires WebGL).

§ Visibility from observer

Set your observer location to see the next 7 days of passes ≥ 10°. The values pass through the URL so the page stays shareable.

No JS? Fill the form by hand. The geolocation button needs JavaScript.